Regional Weather Roundup
Issued by NWS

Home | Current Version | Previous Version | Graphics & Text | Print | Product List | Glossary On
Versions: 1 2 3 4 5 6 7 8 9 10 11 12 13 14 15 16 17 18 19 20 21 22 23 24 25 26 27 28 29 30 31 32 33 34 35 36 37 38 39 40 41 42 43 44 45 46 47 48 49 50
000
ASUS45 KSLC 171910
RWRUT

UTAH REGIONAL WEATHER ROUNDUP
NATIONAL WEATHER SERVICE SALT LAKE CITY UT
100 PM MDT WED SEP 17 2014

UTZ001>011-023>025-172000-

NORTHERN UTAH

CITY           SKY/WX    TMP DP  RH WIND       PRES   REMARKS
HILL AFB       SUNNY     86  46  24 S8        30.02F
LOGAN          SUNNY     81  46  29 N6        29.99F
OGDEN          SUNNY     88  42  20 S7        29.98F
PROVO AIRPORT  MOSUNNY   81  55  41 VRB5      30.02F
SALT LAKE CITY MOSUNNY   90  39  16 S13       29.96F
VERNAL         SUNNY     76  45  33 SE3       30.10F
WENDOVER       SUNNY     84  39  20 NE10      29.96F
HEBER CITY     SUNNY     81  45  28 NW3       30.07F
WEST JORDAN    SUNNY     88  43  20 S16       30.00F

$$

UTZ012>022-026-027-172000-

SOUTHERN UTAH

CITY           SKY/WX    TMP DP  RH WIND       PRES   REMARKS
BRYCE CANYON   SUNNY     72  49  44 S13       30.26F
CEDAR CITY     SUNNY     81  50  33 CALM      30.08F
MILFORD        SUNNY     87  47  24 SW16      30.02F
MOAB/CYNLANDS  SUNNY     83  44  25 E5        30.02F
PRICE          SUNNY     82  37  20 SE9       30.13F
ST GEORGE      CLEAR     90  54  29 CALM      29.93F
KANAB            N/A     84  50  30 NE12      30.09F

$$

REGIONAL REPORTS     COLORADO/ARIZONA

CITY           SKY/WX    TMP DP  RH WIND       PRES   REMARKS
CRAIG, CO      SUNNY     80  44  27 VRB5      30.15F
GRAND JUNCTION SUNNY     80  41  24 VRB3      30.07F
RIFLE          MOSUNNY   78  42  27 CALM      30.12F
MONTROSE       MOSUNNY   80  45  28 VRB5      30.14F
CORTEZ         SUNNY     77  52  41 SW5       30.16F
PAGE, AZ       MOSUNNY   83  54  36 N5        30.04F
GRAND CANYON   PTSUNNY   73  49  42 SE13G25   30.20F
KINGMAN        CLOUDY    83  58  42 CALM      29.97F
FLAGSTAFF      LGT RAIN  59  56  89 NE8       30.23F FOG

$$

REGIONAL REPORTS    NEVADA/IDAHO/WYOMING

CITY           SKY/WX    TMP DP  RH WIND       PRES   REMARKS
LAS VEGAS, NV  MOSUNNY   90  57  32 CALM      29.84F
ELY            NOT AVBL
ELKO           SUNNY     85  39  19 VRB3      30.00F
POCATELLO, ID  SUNNY     89  43  20 S6        29.96F
BURLEY         PTSUNNY   83  47  28 CALM      29.92F
EVANSTON, WY   SUNNY     75  41  29 E17       30.20F
ROCK SPRINGS   MOSUNNY   76  37  24 NE8       30.19F

$$



USA.gov is the U.S. government's official web portal to all federal, state and local government web resources and services.